Location: Breitenfeld
(46.8500°N, 15.6333°E)
Time: 09:14:31
(UTC+00:00)

SL-16 R/B - Pass Details

Date: 09 April 2020
Orbit: 985 x 1007 km, 99.5° (Epoch: 25 May)

Event Time Altitude Azimuth Distance (km) Brightness Sun altitude
Exits shadow 23:48:42 43° 76° (ENE) 1,367 3.3 -34.0°
Maximum altitude 23:49:06 44° 65° (ENE) 1,356 3.4 -34.0°
Drops below altitude 10° 23:54:57 10° 356° (N) 2,774 5.6 -33.7°
Sets 23:57:32 0° 350° (N) 3,724 6.4 -33.6°
